Regional Weather Roundup
Issued by NWS

Home | Current Version | Previous Version | Text Only | Print | Product List | Glossary On
Versions: 1 2 3 4 5 6 7 8 9 10 11 12 13 14 15 16 17 18 19 20 21 22 23 24 25 26 27 28 29 30 31 32 33 34 35 36 37 38 39 40 41 42 43 44 45 46 47 48 49 50
000
ASUS45 KABQ 061810
RWRNM
NEW MEXICO REGIONAL WEATHER ROUNDUP
NATIONAL WEATHER SERVICE ALBUQUERQUE NM
1100 AM MST TUE DEC 06 2016

NOTE: "FAIR" MEANS FEW OR NO CLOUDS BELOW 12,000 FEET AGL WITH NO
       SIGNIFICANT WEATHER OR OBSTRUCTIONS TO VISION.

      THIS PRODUCT IS RELEASED AS TWO VERSIONS.  ONE VERSION NEAR
      THE TOP OF THE HOUR CONTAINING PRELIMINARY DATA FROM ALBUQUERQUE
      AND OTHER STATIONS.  A FINAL VERSION WITH ADDITIONAL DATA IS
      ISSUED ABOUT 10 MINUTES AFTER THE HOUR.

NMZ501-503-504-510>518-061900-
NORTHWEST PLATEAU/NORTHCENTRAL MOUNTAINS

CITY           SKY/WX    TMP DP  RH WIND       PRES   REMARKS
FARMINGTON     PTSUNNY   37  21  52 E7        29.84F WCI  32
6HR MIN TEMP:  25; 6HR MAX TEMP:  37;

LOS ALAMOS     CLOUDY    32  14  47 S9G17     29.93F WCI  24
SANTA FE       CLOUDY    33  10  38 SE23G30   29.94F WCI  21
6HR MIN TEMP:  25; 6HR MAX TEMP:  35;

TAOS           PTSUNNY   34  12  40 W15       29.90F WCI  24
ANGEL FIRE     CLOUDY    31  14  50 S8        29.89F WCI  23

$$
NMZ402-403-502-505>509-061900-
WESTCENTRAL MOUNTAINS/SOUTHWEST MOUNTAINS

CITY           SKY/WX    TMP DP  RH WIND       PRES   REMARKS
GALLUP         CLOUDY    42  17  36 SW22G29   29.91F
6HR MIN TEMP:  27; 6HR MAX TEMP:  43;

GRANTS         FAIR      47  14  26 SW14      29.92F

$$
NMZ407-409-411-412-061900-
SOUTHERN DESERTS

CITY           SKY/WX    TMP DP  RH WIND       PRES   REMARKS
DEMING         FAIR      53  38  56 W15       30.01F
6HR MIN TEMP:  31; 6HR MAX TEMP:  53;

LAS CRUCES     FAIR      52  32  46 SW12      30.02F
HOLLOMAN AFB   PTSUNNY   50  23  34 SE21      30.02S
T OR C         FAIR      46  19  34 SW6       29.96F
6HR MIN TEMP:  37; 6HR MAX TEMP:  46;


$$
NMZ519>523-061900-
CENTRAL VALLEYS/CENTRAL HIGHLANDS

CITY           SKY/WX    TMP DP  RH WIND       PRES   REMARKS
ALBUQUERQUE    PTSUNNY   44  19  36 SE6       29.93F
6HR MIN TEMP:  35; 6HR MAX TEMP:  44;

DOUBLE EAGLE   PTSUNNY   45  19  36 SE8       29.93F
MORIARTY ARPT  PTSUNNY   33   8  35 SE13      30.01F WCI  24
6HR MIN TEMP:  25; 6HR MAX TEMP:  33;

CLINES CORNERS CLOUDY    25   7  46 SE15      29.99F WCI  13
6HR MIN TEMP:  21; 6HR MAX TEMP:  30;

BELEN          PTSUNNY   47  16  28 S13       29.93F
6HR MIN TEMP:  36; 6HR MAX TEMP:  47; 6HR PCP:  0.03;

SOCORRO        FAIR      47  18  31 SE8       29.94F
6HR MIN TEMP:  34; 6HR MAX TEMP:  47;


$$
NMZ524>526-539-540-061900-
SOUTHCENTRAL MOUNTAINS

CITY           SKY/WX    TMP DP  RH WIND       PRES   REMARKS
RUIDOSO        NOT AVBL

$$
NMZ527>531-061900-
NORTHEAST HIGHLANDS/NORTHEAST PLAINS

CITY           SKY/WX    TMP DP  RH WIND       PRES   REMARKS
LAS VEGAS      FAIR      23   5  46 S18       29.99F WCI   9
6HR MIN TEMP:  16; 6HR MAX TEMP:  23;

RATON          FAIR      26   4  38 S15       29.97F WCI  14
6HR MIN TEMP:   9; 6HR MAX TEMP:  26;

CLAYTON        FAIR      28   5  37 VRB5      30.05F WCI  23
6HR MIN TEMP:  18; 6HR MAX TEMP:  29;


$$
NMZ532>537-061900-
EASTCENTRAL PLAINS

CITY           SKY/WX    TMP DP  RH WIND       PRES   REMARKS
TUCUMCARI      FAIR      34   4  28 E7        30.11F WCI  28
6HR MIN TEMP:  27; 6HR MAX TEMP:  34;

CANNON AFB     FAIR      33   7  32 E10       30.09F WCI  25
6HR MIN TEMP:  26; 6HR MAX TEMP:  33;

CLOVIS AIRPORT FAIR      36   7  30 NE9       30.09F WCI  29

$$
NMZ028-029-538-061900-
SOUTHEAST PLAINS

CITY           SKY/WX    TMP DP  RH WIND       PRES   REMARKS
ROSWELL        FAIR      38   8  29 N6        30.12F WCI  33
6HR MIN TEMP:  32; 6HR MAX TEMP:  38;

ARTESIA        FAIR      39  12  33 N9        30.13F WCI  33
CARLSBAD       FAIR      42  17  36 CALM      30.11F
6HR MIN TEMP:  34; 6HR MAX TEMP:  43;

HOBBS          SUNNY     41  14  33 NE13      30.11S


$$



USA.gov is the U.S. government's official web portal to all federal, state and local government web resources and services.